Wind_Speed
7 6 5 5 2 2 1 3 1 2 2 0 2 1 2 2 1 1 2 1 1 2 2 1 1 2 1 3 6 5 3 2 3 4 2 4 22 26 22 25 25 24 25 24 23 22 22 21 22 23 22 22 21 19 18 18 18 18 18 19 18 17 17 17 17 18 18 17 18 18 17 17 18 18 18 18 18 19 20 20 19 18 18 19 19 20 20 19 20 21 22 23 23 24 23 23 24
7 6 5 5 1 3 1 3 2 2 2 1 2 2 2 1 2 2 3 2 2 1 0 2 4 5 4 4 6 4 3 4 1 1 1 14 24 21 24 27 26 27 27 25 24 23 23 21 22 22 22 21 19 18 18 18 19 18 18 18 18 17 18 18 18 18 18 17 17 18 17 18 18 18 18 18 18 19 19 19 17 17 18 18 18 18 19 19 19 21 22 23 23 24 23 24 24
6 6 6 3 2 2 1 3 1 1 1 2 3 3 1 2 2 4 3 4 6 6 2 2 4 4 3 3 2 2 1 2 1 1 5 19 18 19 26 26 27 28 27 26 25 25 24 23 22 21 21 20 18 19 20 19 18 18 18 18 18 18 18 18 18 18 18 17 17 17 17 17 17 17 17 17 18 19 19 18 17 17 17 17 18 17 19 19 19 20 21 22 23 23 23 23 24
6 4 6 3 2 3 3 2 1 3 2 3 3 3 2 4 5 4 2 2 4 4 2 2 3 2 1 1 1 2 2 1 1 1 7 15 16 24 29 27 30 29 27 26 26 26 24 23 21 21 20 20 20 20 21 20 17 17 18 18 17 17 17 18 18 18 18 17 17 16 16 16 16 16 17 17 18 18 17 17 17 17 17 17 17 17 17 17 18 19 20 21 22 22 23 23 23
5 2 4 1 2 1 2 1 1 3 3 3 2 4 2 5 5 4 1 1 1 1 1 2 1 2 0 1 1 1 2 2 1 1 7 15 22 30 29 30 32 30 28 25 26 26 24 24 21 21 21 20 21 20 20 19 17 17 18 18 17 17 17 17 17 17 17 17 16 16 16 16 16 16 16 17 17 17 16 16 16 16 16 16 16 16 16 16 17 19 20 20 21 22 22 22 22
4 1 3 3 2 0 2 0 1 2 4 3 3 3 3 5 6 5 1 1 1 1 2 3 2 1 0 1 1 2 1 2 1 3 9 20 29 30 30 31 31 30 30 27 27 26 24 23 20 21 21 19 18 19 19 18 18 19 18 18 17 17 17 16 16 16 17 17 16 15 15 15 15 15 16 16 17 17 16 15 15 15 15 15 15 15 15 16 16 18 19 19 20 20 20 21 21
3 1 3 4 1 1 2 2 3 3 3 3 4 3 5 6 6 6 3 1 0 0 1 3 4 4 1 1 2 2 2 1 3 7 14 25 30 30 31 32 31 31 30 29 29 27 24 22 21 20 20 19 18 20 19 18 19 19 19 19 18 17 17 16 17 16 16 16 15 15 15 15 15 15 15 16 16 17 16 15 15 15 15 14 14 14 14 15 15 16 17 18 18 19 19 19 19
3 1 1 3 1 2 2 2 2 3 2 2 3 4 7 8 7 6 5 3 2 1 1 2 4 2 2 0 1 2 2 3 5 13 21 27 29 30 30 31 32 31 29 29 28 26 23 21 21 19 19 19 19 20 19 19 19 20 20 20 19 18 17 16 16 16 16 16 15 14 14 15 14 14 14 14 15 15 15 15 14 14 14 14 13 13 13 13 14 15 16 17 17 17 16 16 16
1 1 1 2 1 1 0 2 2 2 2 3 3 3 5 9 9 7 7 3 1 3 2 2 3 1 2 1 1 2 3 6 9 17 25 26 27 29 28 30 32 31 29 28 27 25 23 21 20 19 18 20 20 19 19 20 19 20 20 19 18 17 17 17 16 15 16 15 15 15 14 14 14 14 13 13 14 14 14 13 13 13 13 13 13 12 12 13 13 14 15 16 16 16 14 14 14
1 1 1 1 1 1 2 2 2 2 3 4 4 2 2 5 6 6 7 4 2 5 3 1 1 2 3 3 1 1 3 9 13 19 24 24 25 27 27 29 31 31 29 26 26 24 22 20 20 20 20 20 21 20 20 20 20 20 19 18 17 16 17 16 15 15 15 15 15 15 14 14 13 14 13 13 13 13 13 13 12 12 12 12 12 12 12 12 12 13 14 15 14 14 13 13 12
1 2 2 2 1 0 3 3 3 2 1 1 2 2 3 3 3 3 4 3 3 5 3 1 1 3 3 1 2 2 6 12 16 22 24 23 24 26 28 28 29 30 29 27 25 22 21 21 21 22 22 21 21 21 21 21 20 20 19 19 18 17 17 17 15 15 15 15 15 14 14 14 13 13 13 13 13 13 12 12 11 11 11 11 11 11 11 11 12 12 13 13 13 12 12 12 11
1 2 3 2 2 2 3 3 4 2 2 1 2 4 4 4 4 5 7 4 4 4 3 4 2 5 4 2 2 2 8 14 19 24 23 21 23 26 27 27 29 29 29 28 26 23 22 22 23 23 23 22 22 22 20 20 20 19 19 18 17 17 17 17 16 15 15 14 14 14 14 14 13 13 13 12 12 12 11 11 10 10 10 10 10 10 11 11 11 11 11 11 11 11 12 11 11
2 1 4 1 3 2 3 2 3 1 2 3 3 3 6 6 4 5 7 4 5 6 4 6 4 4 3 1 1 1 8 17 22 24 22 21 23 24 26 27 29 29 29 29 27 25 24 24 25 24 23 23 22 21 20 20 20 19 18 17 18 18 17 17 17 16 15 15 14 14 14 14 14 13 13 12 12 12 11 10 10 10 9 9 9 10 10 10 10 10 9 9 10 11 11 10 10
2 2 4 1 1 1 2 2 2 2 3 3 1 3 5 4 3 4 6 5 7 5 2 7 7 2 2 1 1 2 10 20 24 23 22 20 21 23 25 28 28 29 29 28 28 28 27 26 27 26 25 25 24 23 22 22 22 21 21 20 21 20 19 18 18 17 16 16 15 17 18 16 15 14 13 13 12 12 11 11 10 9 9 9 8 9 9 9 9 9 8 8 9 10 11 10 10
3 1 3 1 2 1 2 2 2 2 3 1 1 4 4 2 2 5 6 7 6 2 2 5 7 2 3 6 4 6 15 23 24 22 21 18 19 24 26 28 29 30 29 29 30 31 30 29 29 29 28 27 26 25 24 23 23 23 23 24 24 22 21 20 19 18 17 18 19 20 22 20 18 17 17 16 14 13 12 11 9 8 7 7 7 7 8 8 8 7 7 7 8 9 9 10 10
2 2 4 1 2 1 2 2 1 1 4 1 2 3 4 2 1 4 4 3 2 1 3 3 5 2 3 5 3 13 25 26 25 22 20 17 19 24 25 27 28 29 30 30 32 33 33 32 31 30 29 28 26 26 26 25 24 23 23 24 24 23 23 22 21 19 18 21 20 19 22 20 17 18 18 16 14 13 11 10 8 6 5 5 5 6 7 7 7 6 6 7 7 7 8 9 10
3 3 2 1 1 2 2 3 1 1 3 2 3 4 5 1 1 1 1 3 4 3 4 2 2 1 1 3 3 17 30 27 25 22 20 18 21 24 24 26 27 27 29 31 33 33 34 33 32 30 29 28 26 26 26 25 24 23 23 22 23 23 23 22 20 19 19 21 18 16 19 17 14 15 15 13 12 10 9 7 6 5 4 4 4 5 6 6 6 5 6 7 7 7 7 8 9
3 2 2 2 2 3 4 5 3 2 3 3 5 6 5 3 3 1 2 1 2 4 5 2 2 3 2 5 3 21 29 28 26 23 21 19 21 23 22 26 27 27 28 30 32 34 34 33 32 30 29 29 27 26 26 25 24 23 23 22 22 22 22 21 19 19 19 19 17 15 17 15 14 14 13 12 10 8 7 6 5 4 4 4 4 5 6 6 6 5 6 6 7 7 7 7 8
3 2 2 3 4 4 4 4 3 2 3 4 6 6 5 4 5 4 2 3 3 5 6 3 4 4 2 2 11 25 29 28 26 23 22 20 22 23 22 24 26 27 29 30 31 33 34 34 32 31 31 30 27 26 26 25 24 24 23 23 22 22 21 20 19 19 19 18 17 17 17 16 15 14 13 11 9 8 7 5 5 4 4 4 5 6 7 7 6 6 6 6 6 7 7 7 7
3 3 2 6 5 3 3 4 4 4 3 4 5 5 6 5 5 4 3 5 5 8 7 6 9 9 4 4 15 25 27 27 25 24 23 22 23 25 25 26 27 29 31 31 32 33 34 35 33 32 32 30 28 27 26 25 24 24 23 23 21 21 19 19 19 19 18 18 17 18 18 17 16 15 13 12 10 9 7 6 5 5 5 5 6 6 7 7 6 6 6 6 6 6 7 6 7
2 4 4 6 5 3 5 6 5 4 3 5 4 4 5 5 5 4 5 5 5 9 11 12 14 13 10 7 13 21 23 24 24 23 23 23 24 25 27 28 29 30 31 32 32 34 35 35 35 34 32 31 29 27 27 25 24 24 23 23 21 20 19 19 19 19 18 18 18 19 19 18 17 16 14 12 11 10 8 7 6 6 6 6 7 7 7 8 7 7 7 7 6 6 6 6 6
1 2 4 3 4 3 5 5 4 3 2 4 5 5 5 3 3 6 8 6 7 8 11 15 13 11 13 12 14 18 20 22 24 24 24 24 24 25 26 27 29 29 30 32 33 35 35 36 35 35 33 31 30 27 27 26 25 25 24 23 22 21 20 20 20 19 19 19 19 20 20 19 18 17 15 14 12 11 10 8 7 7 7 7 8 8 8 8 8 8 7 7 7 7 7 6 6
3 3 2 2 2 3 3 3 3 2 3 5 6 4 4 5 4 5 9 12 9 4 7 12 10 11 17 17 16 16 17 20 24 27 27 27 27 28 28 28 29 30 31 32 34 35 36 37 36 36 34 32 30 28 27 27 26 26 25 24 23 23 21 21 21 20 20 19 20 21 21 21 19 18 16 15 13 12 10 9 8 8 8 8 9 9 9 9 9 8 8 8 8 8 7 7 7
4 4 2 2 2 3 4 3 2 2 4 5 3 2 4 8 6 1 9 16 9 3 4 6 8 14 18 15 14 16 18 22 26 30 31 30 31 30 29 29 28 30 31 32 34 35 37 38 37 36 35 33 31 29 29 28 28 27 26 25 24 24 23 23 22 21 21 20 21 22 22 21 20 19 18 16 15 13 11 10 9 9 9 9 9 10 9 9 9 9 9 9 9 8 8 8 8
2 4 3 1 1 4 4 2 1 0 2 1 2 1 4 8 4 1 12 16 7 4 2 3 8 13 14 13 14 15 17 22 26 28 29 28 28 27 27 27 27 29 31 33 34 35 38 38 38 37 35 34 32 31 31 30 29 29 28 27 26 25 25 23 22 22 22 22 22 23 23 22 22 21 19 18 16 14 13 12 11 10 10 10 10 11 10 10 10 10 10 9 9 9 9 8 8
2 3 3 2 2 5 3 1 2 2 1 1 1 4 6 5 2 6 14 12 6 4 3 5 9 11 12 12 14 14 15 19 24 26 28 27 25 25 27 28 27 29 31 32 34 36 37 38 38 37 35 34 33 32 32 32 31 31 30 28 28 28 26 25 24 24 23 23 23 24 24 24 23 22 21 19 18 16 15 13 12 12 11 11 12 12 11 11 11 10 10 10 9 9 8 8 7
2 4 4 2 2 4 2 3 4 3 2 2 4 6 6 3 1 6 10 4 7 7 5 6 9 11 12 11 12 15 15 20 26 26 25 24 24 27 28 29 30 31 31 32 34 36 37 39 39 37 36 34 34 33 33 34 33 33 32 30 30 29 27 26 26 25 25 24 24 24 25 24 24 23 22 21 19 18 16 15 14 13 13 13 13 13 12 11 11 11 11 10 10 9 9 8 8
2 4 2 3 5 4 2 3 5 1 1 4 6 4 6 2 1 11 9 2 8 8 7 7 8 10 10 11 10 12 14 21 26 23 23 27 29 31 31 32 33 33 33 34 34 34 36 39 39 38 37 35 35 34 34 35 35 34 33 32 31 30 29 28 28 27 27 25 25 25 25 25 25 24 23 22 21 19 18 17 16 15 14 13 13 13 13 12 12 12 12 11 11 10 10 10 9
2 3 1 5 7 5 4 3 3 2 2 5 4 4 7 4 9 15 7 4 6 7 8 7 8 8 8 10 9 9 14 19 21 23 28 33 34 34 33 35 35 34 35 35 33 33 36 38 39 38 37 37 37 36 35 36 36 36 35 34 32 31 31 30 30 29 28 27 26 26 26 26 26 25 25 24 22 21 19 18 17 16 15 15 15 15 15 15 14 14 14 13 13 13 12 12 11
1 1 1 3 7 5 5 1 2 3 2 3 3 3 7 8 14 14 3 6 6 6 8 8 8 7 7 8 8 9 13 16 20 27 32 32 33 33 33 34 34 35 34 33 35 36 36 37 38 38 38 38 38 37 36 36 36 36 36 35 33 33 32 32 31 30 29 28 27 28 28 28 28 27 26 25 23 22 21 20 19 17 17 16 17 17 17 17 17 16 16 16 15 15 14 14 13
0 2 2 2 2 4 7 2 4 2 1 3 4 3 8 10 13 10 4 7 8 8 10 8 8 7 7 8 8 9 11 16 23 27 29 29 31 32 33 34 34 34 34 35 38 39 37 36 37 37 38 39 38 38 37 36 37 37 37 36 35 34 33 33 32 32 31 30 29 29 30 30 29 28 28 27 26 24 24 22 21 20 19 19 19 19 19 19 19 18 18 18 17 17 16 16 15
2 1 3 3 1 4 8 3 6 4 1 3 4 4 8 10 12 8 3 7 8 9 10 9 9 9 8 8 8 9 10 16 21 24 27 29 31 32 34 36 34 35 36 37 38 39 38 38 38 38 38 39 39 39 39 38 37 37 38 37 36 35 35 35 34 33 33 32 32 32 32 32 31 30 30 29 28 27 26 25 23 22 22 21 20 20 21 21 21 20 20 20 19 19 18 17 16
3 1 3 4 2 3 6 4 3 4 1 1 4 4 7 8 9 6 2 7 8 9 10 10 10 10 10 8 9 10 9 11 16 22 28 31 33 35 35 36 36 36 36 37 37 38 40 40 40 39 39 41 40 40 39 39 39 39 39 39 38 37 36 36 35 35 35 35 34 34 33 33 33 33 32 31 30 29 29 27 26 25 24 23 22 22 23 23 23 22 21 21 20 19 18 18 17
3 2 1 4 3 3 4 5 4 0 2 4 4 6 11 12 10 7 3 7 8 10 12 11 10 10 10 9 10 10 10 10 12 20 30 33 35 36 35 35 36 36 35 36 37 39 41 40 40 41 41 41 41 41 40 40 40 40 40 40 39 39 39 39 38 37 37 37 37 36 35 35 35 35 34 34 32 32 31 29 28 27 26 25 24 24 24 24 24 23 22 22 21 20 20 19 18
2 3 2 3 3 3 4 5 3 0 2 4 4 7 15 18 15 12 8 8 10 12 12 11 11 11 10 10 10 10 11 11 14 23 32 34 34 34 34 34 35 36 35 36 37 39 40 40 40 41 41 41 41 41 40 40 40 39 39 39 39 40 41 40 40 40 40 40 39 38 37 37 37 37 37 36 35 34 33 32 31 29 28 27 26 26 26 26 25 25 25 23 23 22 21 19 18
5 4 3 3 5 4 5 6 4 1 2 6 7 9 15 18 17 15 10 9 11 14 12 10 10 10 9 9 9 10 11 13 19 26 29 29 31 33 34 35 35 36 36 35 36 38 39 39 40 41 42 42 41 40 39 39 39 39 38 38 40 42 43 42 42 42 41 42 41 40 40 39 39 39 39 39 38 37 36 35 33 32 31 30 29 30 29 29 28 29 28 26 25 23 22 21 19
3 2 2 4 5 5 6 6 5 1 1 7 8 9 15 17 19 19 10 8 11 13 12 12 11 10 10 10 10 11 13 15 17 20 23 26 30 32 33 33 33 34 35 34 35 37 39 40 41 42 42 41 41 41 40 40 40 39 38 40 43 43 43 43 43 44 43 44 43 43 42 41 41 41 41 41 40 39 38 37 35 34 34 33 32 32 31 31 30 30 29 27 26 26 25 24 22
1 2 2 3 4 6 6 4 4 2 1 6 6 8 16 18 18 19 11 7 11 12 12 14 14 12 10 11 12 12 12 11 10 13 20 26 28 31 33 33 33 34 35 36 37 39 40 41 42 42 41 41 43 43 42 42 43 42 42 44 44 42 42 43 45 46 46 45 45 45 45 44 44 44 44 43 43 42 41 39 38 37 37 36 35 34 33 32 32 32 30 29 28 28 27 25 25
2 2 1 3 3 5 5 3 4 3 0 6 6 7 16 19 17 17 13 8 10 10 12 13 13 12 11 11 12 12 11 11 10 11 16 23 28 31 32 32 34 36 37 39 40 40 40 40 41 41 41 42 44 44 44 44 44 45 44 43 42 41 41 44 45 45 45 46 46 46 46 47 47 47 46 46 45 44 44 43 42 40 40 39 37 36 36 35 35 34 33 32 30 29 28 26 27
1 2 1 4 3 2 3 4 5 3 3 5 7 8 13 15 11 11 10 6 6 7 10 12 11 11 12 12 11 11 13 12 12 11 12 18 24 27 29 32 34 35 36 38 40 40 40 41 42 42 42 43 44 44 44 45 43 43 42 40 38 37 38 39 41 42 44 45 46 47 49 49 49 49 48 47 47 47 46 45 44 43 42 42 41 40 39 39 39 37 36 35 33 31 30 28 28
3 3 4 4 3 3 5 4 6 5 3 3 5 7 8 7 7 8 7 3 5 5 5 9 9 9 9 9 9 11 13 12 13 12 11 13 18 25 30 33 34 35 36 39 41 42 42 43 44 44 44 43 44 44 45 44 41 39 38 35 32 31 32 33 35 40 43 43 45 48 50 50 49 50 49 49 49 48 48 47 46 45 45 44 43 43 42 42 41 41 40 39 38 36 33 31 30
4 3 6 6 4 4 4 6 6 5 4 3 4 5 6 6 6 9 6 6 8 6 4 8 8 6 7 8 10 11 11 11 11 12 11 12 18 24 28 32 33 34 38 41 42 43 44 44 44 44 44 43 44 44 44 42 40 39 37 35 33 31 31 34 39 43 43 44 47 48 49 49 50 50 50 50 50 49 49 49 48 47 46 46 46 45 44 43 43 43 42 41 42 40 36 31 31
3 4 4 6 5 2 3 5 4 2 4 3 3 2 5 7 8 9 5 8 12 10 7 8 7 6 7 9 10 10 10 10 9 10 10 11 16 20 23 30 33 35 40 42 41 41 43 43 43 43 43 43 43 43 42 41 41 40 39 40 39 37 36 40 44 44 42 43 45 46 46 47 49 50 51 51 50 50 49 49 49 48 48 47 47 46 45 45 45 45 44 44 44 42 38 33 33
3 3 4 5 2 2 1 2 1 2 4 5 1 4 3 6 8 7 4 7 12 11 9 9 7 7 9 10 11 10 10 10 9 9 10 11 15 19 24 30 35 39 41 39 38 39 41 42 42 42 43 43 43 42 42 42 42 42 42 41 41 41 42 43 42 39 38 39 41 42 44 45 47 49 50 50 50 50 49 49 49 49 48 48 47 47 47 46 45 45 44 45 44 43 42 38 35
4 4 4 2 2 3 3 2 2 2 3 5 2 3 1 6 7 5 4 6 10 11 10 10 8 9 9 10 11 11 10 9 9 10 10 11 16 22 27 31 35 39 39 37 38 40 40 41 42 41 42 43 42 41 41 43 44 44 43 42 42 43 44 43 39 35 36 38 39 40 42 43 45 46 48 49 49 50 50 50 50 49 49 48 47 47 47 46 46 46 45 46 45 44 44 41 37
3 4 2 2 2 1 2 2 1 2 2 4 5 4 2 5 8 5 3 3 7 9 9 8 9 9 9 9 10 10 9 8 9 9 10 12 18 25 28 29 31 35 36 36 37 38 38 39 39 40 42 42 42 42 42 43 44 44 43 43 43 43 43 41 37 35 35 36 38 39 40 42 43 44 46 48 49 49 50 50 50 50 50 49 48 47 47 47 46 46 46 47 47 46 45 44 41
2 3 2 4 4 3 3 1 2 3 2 6 6 6 3 3 7 4 3 5 6 6 7 9 8 9 10 10 10 10 9 8 8 8 9 12 17 22 23 25 28 30 31 33 34 35 36 36 37 39 42 43 42 42 42 43 44 44 45 45 45 45 44 40 37 37 37 35 37 39 39 40 41 43 44 46 48 49 50 51 51 50 49 49 49 48 48 48 47 47 46 46 47 47 46 45 44
3 3 3 3 4 3 3 4 3 2 4 6 4 5 4 3 8 6 5 7 7 7 8 10 10 10 10 9 9 9 9 8 7 7 8 8 11 14 16 21 25 25 26 29 33 34 34 36 36 38 41 42 42 41 41 43 43 44 46 46 46 47 45 41 39 40 39 38 39 39 38 38 39 41 42 44 47 49 49 50 50 49 49 49 50 50 50 49 47 46 46 46 46 47 47 45 44
4 3 4 3 3 3 3 3 1 2 5 4 1 3 2 6 10 11 11 13 12 10 10 11 11 11 11 9 9 8 8 8 7 7 7 7 7 9 13 18 21 22 25 29 32 33 34 35 35 36 40 42 41 41 41 42 43 45 46 47 47 47 45 43 43 42 41 40 40 39 37 38 38 39 41 45 47 48 49 50 50 50 51 51 51 51 50 49 47 46 46 47 47 47 47 46 46
3 3 4 2 1 2 4 4 2 4 5 3 1 1 3 6 9 12 16 17 15 11 11 12 12 12 12 10 7 7 7 7 7 7 7 7 7 9 13 17 20 22 26 28 30 32 33 34 34 36 40 41 39 39 41 42 43 45 46 47 47 46 44 44 44 44 44 42 41 40 40 39 40 41 43 46 48 47 48 50 50 51 52 51 50 50 49 48 47 47 46 47 48 48 47 47 47
3 4 5 4 4 3 4 4 4 6 4 3 3 1 4 4 4 7 11 12 11 9 9 9 10 11 11 9 7 7 7 7 6 7 7 8 8 11 14 17 19 21 24 25 27 29 30 32 33 35 38 40 38 38 40 41 43 45 45 46 46 46 45 44 44 45 45 44 43 42 41 40 41 43 45 46 46 45 46 48 49 50 51 50 49 49 48 47 47 47 47 46 47 46 45 46 47
2 2 4 2 4 4 2 3 5 2 3 3 2 3 6 5 7 9 8 10 10 9 8 8 10 10 7 8 9 8 7 7 6 7 7 7 8 11 14 15 18 20 20 22 23 25 27 30 32 34 36 38 37 37 38 40 43 44 43 44 45 45 44 43 43 44 45 45 44 42 42 42 42 43 43 43 43 44 45 46 48 49 50 49 50 49 48 48 47 47 47 46 46 45 45 46 46
1 2 3 4 4 5 2 3 1 3 2 4 3 5 5 4 10 11 5 7 9 8 7 7 9 7 4 7 9 7 7 6 5 6 6 6 6 9 13 15 17 18 18 19 21 22 24 26 28 30 33 35 35 35 37 39 40 40 41 42 43 43 44 44 45 45 46 44 43 42 42 43 42 42 42 42 42 42 44 46 47 49 49 49 49 49 48 48 47 47 47 47 47 46 45 46 46
4 3 5 3 2 4 3 1 4 3 4 5 3 7 5 0 6 7 5 5 8 8 7 6 7 6 5 7 7 6 6 4 4 4 4 5 5 8 12 15 17 17 17 17 17 18 19 21 23 25 28 30 31 33 34 35 36 37 39 40 41 43 44 45 46 46 45 43 41 42 42 43 44 43 43 41 40 41 43 45 46 47 48 48 49 49 49 48 47 47 48 47 47 45 44 46 46
4 3 3 1 2 1 1 1 2 2 4 6 4 6 5 5 6 7 7 7 9 10 8 8 9 7 6 8 7 6 6 6 5 5 5 5 5 8 12 14 16 15 15 15 14 15 16 17 19 22 24 26 27 29 30 31 33 35 37 38 40 41 42 44 45 45 44 42 42 43 43 44 45 44 43 41 41 41 41 43 45 47 47 47 48 48 48 48 47 47 47 46 45 44 43 45 45
3 1 3 1 3 3 2 2 3 2 3 6 4 3 4 7 8 8 12 10 8 9 8 7 9 8 7 7 6 6 6 6 5 5 5 5 6 10 12 13 14 13 13 13 12 13 14 15 17 18 21 23 25 26 27 29 30 32 34 35 37 39 40 42 43 43 42 42 43 44 43 44 45 44 43 42 42 42 41 42 44 46 46 46 47 48 48 47 47 48 47 46 45 44 44 45 44
3 1 2 2 2 2 1 2 3 4 3 4 4 6 6 5 5 9 11 8 6 7 8 7 8 9 8 7 6 6 5 5 5 4 5 5 6 9 10 10 11 11 10 9 9 11 13 14 16 17 18 21 23 25 26 27 28 29 31 33 34 36 38 39 41 41 41 42 43 43 43 44 44 43 42 42 43 43 42 43 43 44 45 46 47 47 47 47 47 47 47 46 45 43 45 45 43
7 6 6 5 4 3 0 5 2 3 3 4 3 7 9 4 1 2 4 6 8 8 8 7 8 9 8 7 6 5 4 4 5 4 5 5 6 11 14 14 12 12 13 14 15 15 15 15 15 15 15 17 19 22 23 24 25 26 29 31 33 34 36 37 38 38 39 40 41 42 43 42 43 43 42 42 43 43 42 42 43 44 45 46 47 47 47 46 46 47 46 45 45 43 44 45 42
Wind_Direction
322 334 354 343 325 158 12 51 43 323 78 196 249 215 237 191 125 131 135 242 92 25 325 319 324 19 49 117 137 128 66 163 165 166 205 151 151 154 155 154 152 148 146 143 143 142 141 140 135 131 128 128 125 123 123 120 118 116 114 112 110 111 113 110 109 109 110 106 101 101 99 98 93 89 87 84 82 83 85 84 81 79 79 77 74 72 71 67 64 62 59 60 60 61 64 65 65
319 321 346 345 32 147 264 66 107 316 54 294 274 192 227 47 67 186 183 157 117 156 300 50 59 60 31 65 110 113 41 359 78 180 72 138 147 153 156 154 152 149 146 141 142 142 141 139 134 134 132 128 125 125 126 122 120 120 118 114 113 114 115 113 111 110 111 110 105 102 99 97 94 90 89 85 83 83 84 86 84 80 79 77 74 74 72 68 64 61 59 60 60 61 62 64 66
322 323 345 358 60 78 51 55 107 160 148 244 268 237 188 105 172 206 192 155 146 163 177 37 41 40 1 20 53 74 61 317 106 84 120 140 144 151 156 154 151 148 145 143 146 146 141 138 134 137 135 130 128 124 125 126 123 123 121 118 116 115 116 114 112 111 111 112 109 105 101 98 96 92 90 88 85 85 85 87 86 81 80 78 75 74 72 68 64 61 59 60 60 61 61 63 66
322 333 341 350 48 25 62 55 176 145 196 225 259 270 171 163 186 194 177 146 142 149 154 69 42 7 340 126 345 48 124 247 315 1 138 150 151 151 155 153 150 146 145 148 151 146 140 141 137 139 137 132 132 126 124 126 126 125 123 121 121 120 118 115 113 113 112 113 111 108 104 102 100 95 93 91 88 90 89 86 85 83 81 80 77 74 72 68 65 62 59 59 59 61 61 62 66
320 351 343 33 111 1 106 94 153 146 218 199 217 263 195 170 173 172 153 24 65 96 126 123 85 334 76 121 298 28 135 117 346 263 135 148 151 151 154 152 149 146 148 150 149 144 142 145 142 143 140 135 136 133 128 127 130 129 125 122 123 125 122 119 117 116 116 115 112 111 108 106 105 100 97 94 92 95 93 86 84 84 82 81 78 75 72 69 65 62 60 59 59 60 62 62 66
332 15 15 64 111 178 121 161 202 202 231 173 180 243 183 162 162 150 118 340 35 92 187 160 137 139 15 353 268 250 203 128 133 149 136 146 150 153 153 151 149 148 151 151 149 146 147 148 143 142 144 145 142 138 134 131 133 131 128 125 127 129 125 124 122 121 120 119 115 113 112 109 108 105 101 98 96 98 96 91 89 88 86 83 80 77 74 70 66 61 59 59 59 60 62 64 67
346 300 8 54 48 42 118 196 206 224 239 184 184 193 169 165 157 144 143 171 136 353 151 164 131 119 241 291 186 234 278 224 159 144 146 149 150 153 153 152 151 150 152 153 152 151 151 147 142 141 146 148 140 139 138 137 138 133 130 127 130 133 130 128 125 125 124 124 121 118 116 112 111 109 104 100 98 99 98 96 93 91 90 87 83 80 76 73 68 63 60 59 59 60 62 65 70
332 319 18 82 31 18 122 198 220 217 236 240 221 179 170 167 157 155 168 165 163 195 112 161 136 115 257 277 171 236 264 224 164 145 148 149 152 154 155 155 152 151 151 152 152 150 149 149 149 147 148 149 143 143 141 140 141 136 132 128 131 133 133 132 128 129 126 126 125 124 120 115 114 112 108 104 101 100 99 98 96 94 91 88 85 82 78 75 70 65 62 60 60 60 63 65 71
342 46 79 82 82 1 77 224 249 227 229 244 236 207 169 163 164 163 167 171 131 149 175 181 150 202 218 126 311 277 260 212 164 149 152 153 156 156 157 156 153 151 150 152 153 148 149 154 155 153 152 150 147 147 145 144 142 139 137 134 135 136 136 133 130 132 129 128 127 126 123 118 119 117 113 111 108 105 103 101 99 96 92 88 85 82 79 75 69 65 62 61 61 61 64 67 71
35 37 153 69 88 355 304 247 242 230 225 224 225 221 152 156 172 170 161 172 146 144 180 140 106 191 161 150 231 287 223 191 167 156 156 155 158 159 158 156 154 151 151 153 154 152 154 156 151 153 155 148 147 148 146 146 144 142 141 141 142 142 142 139 136 136 133 132 130 128 127 124 123 121 118 116 113 110 108 105 102 97 93 89 85 82 77 73 68 64 63 62 62 64 66 70 75
28 334 104 79 75 201 250 245 255 236 254 296 262 202 155 150 158 167 154 150 154 149 168 144 164 168 144 196 236 248 193 181 170 161 158 157 159 161 159 158 158 155 154 155 154 155 158 158 152 154 154 147 148 148 145 147 148 145 141 141 142 141 142 143 143 142 139 136 135 133 131 130 129 126 123 121 118 114 112 109 105 99 94 90 84 81 77 75 72 69 68 66 65 68 72 76 79
105 297 72 103 180 206 216 241 261 255 335 289 220 198 161 161 162 177 176 170 162 157 187 190 190 149 144 240 240 233 195 185 174 164 161 161 163 164 162 161 162 159 157 157 158 159 159 158 156 156 155 150 151 151 150 151 152 150 147 147 146 145 144 144 146 147 146 143 142 141 139 137 134 132 128 126 124 120 117 113 109 103 98 91 84 81 78 78 78 77 75 74 72 74 80 83 83
145 192 91 143 194 190 221 260 265 296 314 241 214 182 155 171 195 189 171 160 160 167 213 191 166 147 163 240 256 235 204 190 174 168 165 162 165 167 166 165 164 162 160 160 161 161 160 160 159 159 158 155 156 157 157 157 156 155 154 155 153 152 149 147 148 148 150 149 146 144 145 143 139 136 134 131 128 127 124 120 115 109 101 92 88 84 82 83 84 86 85 85 83 82 87 90 89
177 173 119 207 253 183 223 259 267 263 266 254 214 156 159 190 201 169 152 163 184 178 203 167 155 168 191 203 248 224 203 190 175 173 171 166 169 169 169 167 167 166 164 165 165 165 164 163 163 163 161 160 162 162 161 161 159 157 157 158 155 154 151 149 149 149 153 152 149 149 147 143 139 136 136 136 133 131 129 126 121 114 107 97 93 90 88 90 94 99 100 101 99 95 96 98 97
184 146 99 128 314 320 241 235 248 239 246 240 179 161 160 239 139 154 175 184 199 180 117 153 168 197 187 182 215 199 190 187 179 177 175 172 171 170 171 168 169 170 169 170 168 169 170 169 167 167 167 166 167 165 163 163 162 162 165 166 163 158 154 151 151 152 153 155 159 161 156 150 147 148 148 147 143 140 138 135 130 123 116 107 102 98 98 99 104 114 115 116 115 112 109 109 106
151 95 72 63 281 269 249 245 288 239 254 253 202 168 153 266 91 163 221 166 145 179 156 178 198 239 181 183 224 185 181 183 180 178 175 173 169 167 170 169 170 172 172 172 171 172 174 175 172 172 173 173 174 171 168 167 168 172 175 174 171 167 162 158 154 153 157 166 172 169 166 166 161 157 156 154 148 145 146 144 141 137 129 124 119 112 111 113 119 125 125 126 126 125 120 118 115
69 79 77 304 218 208 230 224 224 200 257 263 196 188 156 233 313 179 324 102 125 188 198 227 233 342 194 251 279 178 175 178 178 176 175 171 168 166 166 168 169 171 172 172 172 174 176 178 178 178 180 180 179 177 175 174 175 178 178 175 173 172 170 166 160 159 168 178 180 170 171 175 163 156 155 153 151 149 152 151 150 151 147 148 146 136 130 133 141 141 137 135 132 131 126 123 122
72 103 147 226 200 209 201 196 208 164 233 213 190 199 166 176 216 159 48 88 114 176 209 253 309 344 294 287 206 170 172 176 176 174 174 170 170 168 166 169 170 171 173 172 174 176 178 180 182 183 183 182 182 181 179 178 178 179 178 176 174 175 175 175 173 174 180 181 179 171 171 171 163 160 158 157 159 160 161 162 163 168 173 175 176 166 157 161 165 157 149 144 139 137 134 130 126
141 134 155 222 206 210 197 191 206 174 226 198 191 203 189 196 184 157 177 215 161 175 221 242 257 275 302 272 161 166 172 175 177 176 177 174 175 174 170 172 173 174 175 175 175 178 181 182 184 185 184 183 184 184 182 181 180 180 180 178 177 178 179 181 181 183 185 183 179 176 173 172 170 169 168 169 172 175 178 180 181 191 198 196 194 185 179 181 179 171 162 154 149 143 140 136 130
182 130 167 241 209 204 216 196 203 210 204 172 195 197 203 219 165 159 195 194 189 200 212 200 227 229 197 176 160 166 173 176 180 180 182 182 181 179 175 175 177 179 179 179 178 179 183 185 186 188 187 186 187 187 186 184 183 183 183 182 181 181 181 182 183 186 188 186 183 181 179 178 179 178 179 181 184 188 193 194 199 213 215 210 209 199 193 193 187 180 173 163 160 153 148 142 135
190 148 196 237 179 182 229 204 203 218 194 175 182 160 207 223 156 180 165 162 224 226 215 201 215 206 177 181 168 169 175 179 184 186 188 188 186 186 183 181 182 183 181 181 181 182 185 188 190 190 190 190 191 192 189 187 186 186 185 184 184 183 183 183 186 190 191 189 186 185 184 185 185 186 187 190 192 198 203 206 212 221 220 215 214 206 199 200 196 189 184 177 170 163 157 149 143
144 202 217 225 153 192 236 207 205 217 183 167 162 160 197 169 160 204 171 185 229 223 216 210 214 190 169 174 172 174 179 184 189 191 193 192 192 191 188 184 184 184 183 184 185 185 188 192 194 193 193 194 195 196 193 190 190 189 189 187 186 186 187 188 189 193 194 193 190 189 190 190 191 192 195 198 201 205 211 216 219 221 220 218 216 211 204 203 203 198 194 188 182 174 169 161 155
203 256 261 262 203 206 224 202 211 185 144 178 180 183 164 145 227 221 192 221 227 210 216 211 210 175 167 169 170 178 185 189 193 195 194 193 195 194 190 186 185 185 185 188 188 188 191 194 197 196 196 196 197 199 196 194 194 195 193 191 191 191 191 191 193 196 198 197 193 195 196 195 195 197 200 204 208 213 217 222 225 226 222 221 220 214 211 209 208 205 201 197 192 186 180 174 169
201 228 238 256 245 200 205 205 212 134 166 211 181 123 151 183 228 224 216 235 231 233 253 211 183 160 162 167 176 186 188 193 197 199 197 196 197 196 193 189 187 187 187 190 190 190 192 195 198 198 199 199 199 200 198 198 198 198 196 196 198 197 196 196 198 199 201 200 198 200 202 201 201 202 205 209 214 217 221 226 229 230 225 225 225 220 217 214 213 212 209 204 199 195 191 185 179
170 201 211 190 312 230 224 217 250 201 199 269 78 174 222 206 211 289 241 243 230 223 251 172 153 152 166 176 184 190 191 196 200 201 202 201 200 198 197 194 190 188 189 190 190 192 194 197 199 200 201 202 202 202 202 203 202 200 200 202 202 201 201 201 201 203 204 202 202 204 205 206 206 207 210 213 217 220 223 228 231 232 230 229 229 226 222 218 218 214 213 211 205 202 198 195 189
198 172 174 162 252 242 223 213 247 258 242 80 129 260 267 243 270 270 253 245 207 170 143 157 155 161 181 185 187 190 193 199 200 202 203 203 201 200 201 199 195 192 192 191 191 193 194 197 200 202 204 204 203 203 204 206 205 203 204 207 207 206 206 204 204 206 207 205 205 208 209 210 211 212 214 215 219 222 223 226 230 232 231 230 231 231 225 221 222 218 216 216 212 208 205 203 201
170 126 130 144 266 254 189 212 246 256 263 172 189 258 272 280 335 255 264 241 161 150 155 173 167 179 189 189 193 193 196 200 200 200 201 203 202 202 202 201 200 198 194 192 192 193 193 196 201 204 206 206 205 205 208 210 209 208 208 210 210 210 209 207 207 209 209 208 210 212 213 214 215 216 218 219 221 223 224 225 228 231 233 232 231 231 229 225 224 223 221 220 219 215 210 209 209
115 113 97 337 339 298 225 216 244 243 261 185 165 262 276 321 229 239 254 169 161 165 177 187 184 193 191 192 197 196 204 204 201 199 200 204 205 204 203 202 203 201 198 196 194 192 192 197 201 204 207 208 209 209 211 212 212 211 211 212 213 214 212 210 210 212 212 211 213 215 217 217 217 218 220 222 223 224 225 226 228 232 236 236 234 233 233 229 226 226 224 222 222 219 216 214 212
124 108 321 311 354 324 262 222 215 158 216 193 146 316 283 218 223 240 239 152 177 177 186 199 200 202 195 197 198 201 209 204 200 203 206 207 207 206 206 205 204 203 203 201 197 195 195 197 200 203 207 210 212 213 213 213 215 214 214 215 216 215 214 213 214 215 215 214 215 217 219 220 220 221 222 224 226 227 228 228 230 234 238 239 237 234 233 232 228 227 225 223 223 222 221 218 214
168 63 39 319 360 331 284 264 134 139 204 184 132 307 274 240 239 246 221 143 169 188 209 210 207 210 203 203 204 209 210 204 204 209 211 210 210 210 210 210 207 206 206 204 203 202 199 199 200 203 206 210 213 214 214 215 216 217 217 217 217 217 217 217 218 220 219 217 218 220 221 222 223 224 225 226 227 228 229 230 233 236 239 239 236 233 233 233 231 228 227 224 224 224 223 222 218
231 319 22 14 353 291 294 290 140 154 237 127 113 252 263 268 265 259 218 168 170 201 223 216 215 219 211 212 211 217 215 210 213 214 214 214 213 213 213 213 210 209 207 205 208 207 204 202 202 203 206 210 212 214 215 217 219 219 219 219 219 220 220 221 222 222 222 220 220 221 222 223 224 226 227 228 228 229 230 231 235 238 238 238 235 234 232 233 233 230 228 226 225 224 224 224 221
35 344 316 340 210 267 303 285 169 182 269 110 130 243 268 269 273 274 209 178 183 210 227 218 220 220 216 220 215 221 224 219 221 221 219 217 216 215 215 214 211 210 209 207 209 208 207 206 205 205 206 208 212 215 217 219 221 222 222 222 222 222 223 224 225 226 225 223 222 222 224 224 225 227 227 228 229 230 231 233 236 238 238 236 235 233 232 233 233 230 229 228 227 226 225 225 225
1 85 263 283 264 289 318 309 214 192 218 205 189 244 278 264 268 290 169 183 200 219 234 225 221 223 218 220 217 221 225 221 224 223 221 219 218 217 215 214 213 212 211 209 207 207 208 208 207 207 208 210 212 215 217 219 221 223 223 223 223 224 224 226 227 228 228 225 224 224 224 225 226 227 228 228 229 231 233 234 236 237 236 236 235 232 232 234 233 231 230 229 228 228 228 227 226
322 18 278 261 255 284 307 311 315 137 203 248 230 241 262 263 269 281 226 197 210 225 236 232 224 224 219 219 221 222 220 220 221 220 220 219 218 218 217 216 214 214 213 211 210 210 210 209 208 209 211 212 213 214 216 219 220 222 224 224 224 225 226 228 229 229 229 227 226 226 226 227 227 228 228 229 230 232 234 235 235 235 235 235 234 232 232 232 232 232 232 230 228 227 228 228 227
239 268 285 288 278 268 272 282 298 348 235 252 264 263 265 270 271 266 238 201 216 231 234 235 231 225 222 221 222 223 223 225 225 221 220 219 218 218 217 217 216 215 214 213 213 213 213 212 211 211 212 213 214 215 216 217 218 220 222 223 223 224 226 227 228 229 229 229 229 228 228 228 228 228 229 230 230 231 232 233 233 233 233 233 232 231 230 228 229 230 231 230 228 226 228 229 228
192 219 205 257 279 278 262 263 263 226 266 261 247 256 269 276 277 272 251 202 219 238 238 240 238 232 229 225 225 226 226 230 229 225 222 220 218 218 217 217 217 217 216 215 214 214 215 214 213 214 214 214 214 214 213 213 215 216 218 220 221 223 225 225 227 229 230 231 231 230 230 229 230 230 230 230 230 231 231 232 232 231 231 231 230 230 229 229 230 230 229 228 226 224 223 224 225
170 183 199 254 265 282 270 265 283 268 264 261 240 251 269 274 277 278 265 209 223 239 240 245 240 235 232 225 227 224 224 234 234 228 224 221 220 218 218 218 217 218 218 217 216 216 216 217 216 216 215 214 213 213 212 212 212 213 214 218 221 222 222 224 226 229 230 232 233 232 231 231 231 232 231 230 230 230 231 231 231 229 229 229 231 233 233 232 232 231 230 227 226 224 220 218 219
121 172 236 288 255 263 261 247 296 354 11 270 264 278 277 275 277 281 274 222 229 232 231 243 240 234 233 226 228 226 228 239 234 224 219 218 218 218 217 217 216 217 217 217 218 218 219 219 219 218 217 214 215 215 214 214 215 215 217 219 222 222 222 223 225 228 231 232 233 233 233 233 233 233 232 231 230 230 229 229 229 229 229 229 231 233 232 231 229 228 226 224 224 225 224 220 214
117 149 174 291 263 278 285 282 324 0 23 279 304 308 286 282 281 281 278 242 238 233 222 236 237 231 230 224 227 227 231 236 226 219 214 212 214 214 215 215 216 217 218 219 220 221 220 220 220 220 219 217 217 217 216 217 218 219 221 222 223 223 225 227 228 231 232 232 233 233 234 234 233 233 233 231 230 229 229 229 230 230 230 229 229 229 228 227 227 226 224 223 221 222 226 224 216
166 163 165 271 274 313 284 297 327 306 241 273 304 305 284 289 297 291 282 245 247 251 231 237 234 228 228 223 223 223 225 228 225 222 214 210 211 211 212 214 216 217 218 220 220 221 221 222 222 222 221 220 219 218 218 220 221 222 222 224 226 226 227 229 230 231 231 231 232 233 234 234 233 233 233 232 231 230 230 230 230 230 230 229 228 227 226 226 225 225 224 223 219 216 219 221 218
283 203 188 234 256 234 239 284 317 309 299 281 309 314 287 301 327 301 300 308 284 288 268 255 242 234 239 235 232 225 223 224 222 221 214 206 207 210 212 213 215 216 218 220 220 220 221 223 223 223 223 223 222 221 220 220 220 221 221 222 226 227 228 229 227 228 229 229 230 232 234 233 233 233 233 232 232 231 230 230 230 230 230 229 228 227 228 227 226 226 225 222 218 216 217 216 215
309 241 197 188 193 237 273 322 339 349 341 318 20 357 290 305 318 280 299 335 303 305 308 273 254 240 237 237 237 230 226 225 222 220 211 204 207 209 212 213 214 216 219 221 221 221 222 223 224 224 224 224 224 223 221 219 218 218 217 217 218 220 223 225 226 228 228 227 230 232 233 234 233 233 233 233 232 231 231 230 230 230 230 229 228 228 227 227 227 227 225 222 220 220 218 214 212
298 251 182 156 151 221 308 355 4 344 286 280 82 112 264 307 307 275 300 324 297 298 296 272 260 242 226 227 235 231 227 225 224 224 213 207 209 207 211 213 213 216 221 222 222 222 223 224 225 225 225 225 225 224 221 219 219 219 219 219 220 220 223 227 230 231 230 230 232 232 233 234 234 233 233 233 233 232 231 230 230 230 230 229 229 227 226 227 228 227 226 224 223 221 218 215 214
246 237 145 139 147 270 269 66 46 248 278 306 72 150 235 295 284 276 313 313 300 305 299 282 263 240 229 230 235 232 227 219 217 221 215 210 209 207 210 213 214 219 223 222 221 223 224 224 225 225 226 226 226 225 222 221 220 221 221 222 224 225 228 233 235 235 235 234 235 233 233 234 234 234 233 233 233 232 231 231 231 230 229 229 228 227 228 228 228 227 226 225 224 222 218 217 217
245 208 156 186 229 222 174 137 246 280 345 319 284 154 205 271 269 302 337 306 298 297 288 280 264 245 237 237 238 237 231 220 215 216 216 212 210 211 214 215 218 220 222 222 222 223 224 224 225 225 226 226 226 226 224 223 223 223 224 224 227 230 233 237 238 239 239 237 236 236 235 234 235 235 234 233 233 232 232 232 231 231 229 229 228 228 229 228 228 227 225 224 223 222 221 220 220
224 166 126 20 52 117 121 137 226 28 12 273 241 176 182 274 276 303 341 284 268 271 275 272 262 253 246 243 242 240 234 224 221 219 218 216 213 215 217 218 220 222 222 223 224 224 224 224 224 224 226 227 227 226 226 225 225 225 225 227 229 232 235 238 239 240 240 239 238 237 235 235 234 234 234 233 233 233 233 232 231 231 230 230 229 229 229 228 228 227 226 225 224 223 223 222 221
143 106 52 19 34 45 47 83 86 54 296 260 235 197 162 297 280 258 223 226 217 231 271 279 271 263 250 243 241 237 231 223 220 221 225 224 222 221 219 220 223 224 224 223 224 225 224 225 224 225 228 228 227 227 227 227 226 225 227 228 231 234 236 237 237 238 239 238 238 237 236 235 234 234 234 234 233 233 233 232 232 231 231 230 230 230 229 229 228 227 227 226 225 225 224 224 223
91 75 52 11 348 13 18 355 45 82 256 266 244 198 156 242 264 249 233 243 222 211 248 266 268 265 250 240 238 234 228 221 214 216 223 224 223 222 218 220 224 224 223 223 224 225 225 225 225 226 229 229 228 228 227 228 228 227 229 230 232 235 236 236 236 238 238 237 238 238 237 236 235 235 234 234 234 233 232 232 232 231 231 231 230 230 230 230 229 228 227 226 225 226 225 224 224
80 93 75 36 334 353 343 304 338 208 241 266 231 177 188 239 254 260 259 258 244 222 227 242 251 258 255 244 237 233 225 216 210 209 213 211 211 211 209 217 222 221 222 224 225 226 225 226 226 226 231 232 230 229 229 229 229 230 231 232 234 236 237 237 238 239 240 239 240 239 237 236 235 234 233 234 235 233 232 232 231 231 231 231 231 231 231 230 229 228 227 226 226 226 225 225 225
134 156 123 119 83 11 293 272 283 268 257 271 258 192 257 275 265 249 245 252 250 234 229 237 242 248 254 254 246 244 233 216 209 207 206 206 207 204 205 212 217 219 223 226 226 227 227 228 227 227 233 236 232 230 231 230 231 233 234 234 236 237 237 238 239 240 241 241 241 240 239 237 236 236 236 237 237 235 233 233 233 232 232 232 232 231 231 230 229 228 228 228 227 227 227 226 227
188 169 128 143 153 170 247 235 234 265 280 285 290 221 212 243 271 238 231 252 265 254 242 245 250 250 257 274 279 265 246 225 211 208 211 212 207 203 206 212 216 221 227 228 229 229 228 229 230 230 235 239 236 233 233 232 234 235 235 236 237 238 238 239 240 241 242 242 242 242 241 240 240 240 240 240 240 237 235 234 234 234 233 232 232 232 231 230 229 229 229 229 229 228 227 227 228
233 144 107 159 181 165 213 213 198 231 305 279 248 235 221 225 281 279 261 266 270 266 261 251 254 256 256 269 270 255 240 226 208 208 217 219 212 206 208 214 219 225 229 231 233 233 232 234 234 234 239 243 240 237 236 236 237 238 237 237 238 239 240 240 242 243 244 244 244 243 243 243 243 244 243 243 241 238 237 236 235 235 234 233 233 232 232 231 229 229 229 229 229 228 228 228 229
183 139 176 221 182 129 122 267 319 53 293 261 196 235 271 307 293 289 293 284 280 285 283 258 257 275 265 249 253 250 243 232 215 215 223 221 212 211 214 218 223 228 232 236 241 242 240 242 241 240 243 245 244 242 241 241 240 240 240 240 240 240 241 241 243 244 245 246 245 245 246 246 246 246 245 245 243 240 239 237 236 236 235 234 233 233 232 231 230 229 229 229 229 228 228 229 229
131 184 224 230 146 92 89 266 337 15 269 268 208 228 253 267 277 303 2 319 292 294 301 300 300 308 281 256 255 255 259 276 282 273 268 254 230 221 222 224 229 234 239 245 252 253 250 250 249 248 250 251 251 250 247 246 245 243 244 244 244 244 243 244 245 246 247 247 247 246 247 247 247 247 247 245 244 242 240 238 237 237 236 234 233 232 232 231 230 230 230 230 230 228 228 229 229
130 203 226 137 154 214 68 151 264 276 267 283 261 242 242 202 234 287 299 279 278 286 301 317 308 297 279 271 274 286 301 311 305 296 284 269 250 237 233 233 237 241 247 254 262 263 262 262 259 256 257 260 262 259 255 254 251 249 250 251 251 249 248 247 247 248 248 247 247 248 248 249 249 249 248 246 244 242 240 238 237 236 236 234 233 232 232 231 230 230 230 230 230 228 228 229 229
54 309 307 5 162 186 177 165 177 190 253 286 295 282 249 223 225 250 262 264 270 285 303 311 298 292 289 290 306 323 319 297 292 293 276 265 259 251 244 243 246 247 250 256 265 272 275 276 270 265 265 265 265 263 261 259 258 257 256 256 256 255 253 252 251 250 248 248 249 249 249 250 251 250 249 247 246 243 241 239 237 236 235 234 233 232 231 230 229 229 230 229 229 227 227 229 229
135 197 252 244 177 154 224 237 153 144 208 251 284 289 270 244 224 235 258 286 317 323 323 316 316 325 322 319 322 315 301 290 289 285 272 266 272 280 284 284 277 273 277 290 306 308 306 302 294 288 283 278 275 273 269 267 266 264 261 260 261 261 259 257 255 252 250 250 251 251 252 253 253 252 250 248 247 245 243 241 239 237 235 234 233 232 231 229 228 229 229 229 229 227 227 229 229
162 186 200 191 171 130 187 271 238 143 198 198 225 279 279 278 294 288 312 352 12 4 355 349 353 357 352 348 343 328 331 324 296 283 294 304 320 330 337 341 342 345 354 4 9 6 1 354 345 334 323 314 306 299 292 287 283 277 272 271 270 269 266 262 258 255 253 253 254 254 255 254 254 254 253 250 249 247 245 243 240 238 236 234 233 232 230 228 228 228 228 228 228 226 227 228 227
Height
820 820 819 819 818 818 820 821 833 838 840 848 846 843 839 834 835 835 838 840 841 844 843 841 839 838 837 835 836 841 844 842 842 848 848 842 844 846 847 849 851 853 855 856 859 860 861 862 862 863 863 864 865 866 868 868 868 869 870 870 870 871 871 872 872 872 873 873 873 874 874 874 874 874 874 874 874 874 874 874 875 875 875 875 875 874 874 874 874 873 872 871 870 869 868 867 867
820 820 819 819 817 819 823 825 839 846 845 851 845 840 838 834 836 838 840 841 842 844 842 841 840 840 841 838 838 840 844 845 844 844 843 844 845 847 848 849 851 853 855 857 859 860 861 862 863 864 863 864 866 867 868 868 869 870 870 870 871 871 872 872 873 873 873 874 874 875 875 875 875 875 875 875 875 875 875 875 876 876 876 876 876 876 875 875 875 874 873 872 871 870 870 869 868
820 820 819 819 818 820 825 828 840 848 849 850 844 838 836 836 838 840 841 840 840 840 841 841 840 842 844 842 841 841 844 846 845 844 845 846 845 847 849 850 851 853 855 857 859 860 860 862 863 864 864 865 866 867 868 868 870 870 870 871 871 872 872 873 873 873 874 875 875 876 876 876 876 876 876 876 876 876 876 877 877 877 877 877 877 877 877 876 876 875 874 873 872 872 871 870 869
820 820 819 818 821 824 828 835 840 845 848 847 843 838 836 837 838 841 841 840 839 839 840 841 842 845 845 843 844 844 846 846 845 844 845 846 846 847 849 850 852 853 856 857 859 859 859 861 863 864 865 865 866 867 867 869 870 870 870 871 872 873 873 874 874 874 875 875 876 876 877 877 877 877 877 877 877 877 877 878 878 878 878 878 878 878 878 877 877 876 875 874 873 873 872 871 871
820 820 819 818 824 827 831 839 841 843 844 841 840 838 837 839 840 842 842 841 841 840 841 841 843 846 845 846 847 845 845 846 845 845 845 846 847 848 849 850 851 853 856 858 860 860 860 861 862 864 865 865 866 866 867 869 870 871 871 871 872 874 874 874 875 875 875 876 876 877 878 878 878 878 878 878 878 878 879 879 879 879 879 879 879 879 879 879 878 877 876 875 875 874 873 873 872
820 820 819 818 823 825 833 841 843 842 838 835 836 835 837 839 840 841 841 841 840 840 841 841 842 846 846 847 848 846 845 845 845 845 845 846 847 848 850 851 852 853 855 858 860 860 861 861 863 864 865 866 865 866 867 869 870 870 871 871 873 874 874 875 875 876 876 876 877 878 878 879 879 879 879 879 879 879 879 880 880 880 880 880 880 880 880 880 879 878 877 877 876 875 874 874 873
820 821 822 823 826 828 838 843 841 839 834 834 833 832 836 837 838 839 840 840 840 839 840 840 842 844 845 847 847 845 845 844 844 845 845 846 847 848 850 851 852 853 855 857 859 860 861 862 863 864 865 866 866 867 868 869 870 870 870 871 873 874 875 875 876 876 876 877 877 878 879 879 879 880 880 880 880 880 880 880 881 881 881 881 881 881 881 881 880 879 879 878 877 876 876 875 874
821 823 825 829 834 835 840 841 838 836 834 834 831 830 833 834 836 838 839 839 838 839 840 840 842 843 843 846 846 845 845 844 844 844 845 847 848 849 850 851 851 853 855 856 858 859 861 862 863 864 865 866 867 867 868 870 870 870 870 871 873 874 875 875 876 877 877 877 878 879 879 880 880 880 881 881 881 881 881 881 881 882 882 882 882 882 882 881 881 880 880 879 878 877 877 876 876
821 824 828 832 838 840 841 840 837 834 834 834 831 830 830 832 834 835 838 838 837 839 840 841 842 842 843 846 846 845 845 844 845 844 845 847 848 849 850 851 851 853 855 857 858 859 861 862 862 864 865 866 866 868 869 870 870 870 871 871 873 874 874 875 876 877 877 878 878 879 879 880 880 881 881 881 881 882 882 882 882 883 883 883 883 882 882 882 881 881 880 879 879 878 877 877 876
822 824 828 834 840 843 843 840 835 833 832 832 831 831 832 833 834 833 836 838 838 838 840 841 842 843 843 846 847 845 844 844 845 845 846 847 848 849 850 852 852 853 855 857 858 860 861 861 862 863 865 865 866 867 868 870 870 870 871 871 873 874 874 875 876 877 877 878 878 879 880 880 881 881 881 882 882 882 883 883 883 883 883 883 883 883 882 882 881 881 880 880 879 879 878 877 877
826 825 827 837 843 843 842 838 833 831 833 833 832 832 833 834 835 835 836 838 838 839 840 842 842 843 845 846 846 844 843 844 844 844 846 847 848 849 850 852 853 853 855 857 858 860 860 861 862 863 864 865 866 867 868 869 870 870 871 871 873 874 874 875 876 877 878 878 878 879 880 881 881 882 882 882 882 883 883 883 883 883 883 883 883 883 882 882 882 881 881 880 879 879 878 878 877
829 829 829 839 843 840 838 836 832 830 834 834 831 830 832 834 834 835 836 836 838 839 840 841 840 839 844 846 844 843 843 844 844 845 846 847 848 849 850 851 853 854 854 856 858 859 860 861 862 863 863 865 866 867 868 869 870 870 870 871 872 874 874 874 875 877 878 878 879 879 880 881 881 881 882 882 882 883 883 883 884 884 883 883 883 882 882 882 882 881 881 880 880 879 879 878 878
829 831 832 839 839 837 836 835 831 830 832 830 829 829 831 833 832 832 834 836 837 840 838 837 838 838 842 844 843 843 842 843 844 845 846 846 848 849 850 851 852 854 854 855 856 858 860 860 861 862 863 865 866 867 868 868 869 869 870 871 872 873 874 874 875 876 877 878 879 879 880 880 881 881 882 882 882 883 883 883 884 883 883 883 883 882 882 882 882 881 881 880 880 879 879 879 878
827 828 831 837 836 834 834 833 830 831 829 826 829 831 830 831 830 830 832 835 837 836 834 834 836 837 840 842 841 841 840 841 843 844 845 846 847 849 850 851 852 853 854 855 856 857 859 859 860 862 862 864 865 866 867 867 868 868 869 870 871 872 872 873 874 875 877 878 878 877 878 879 880 881 881 882 882 883 883 883 883 883 883 883 882 882 882 882 882 881 881 880 880 879 879 879 879
824 825 830 836 836 835 833 831 830 831 829 826 831 832 831 830 828 831 831 832 835 833 833 834 835 835 835 834 835 836 837 839 842 843 844 846 847 848 849 850 852 853 854 854 855 856 857 858 859 860 862 863 864 865 866 866 867 867 868 868 869 870 871 872 873 874 876 876 876 876 877 878 879 879 880 880 881 881 882 882 882 882 882 882 882 882 882 881 881 881 880 880 880 879 879 879 879
822 824 831 837 838 838 834 830 830 830 828 829 832 832 832 830 828 831 829 829 832 833 833 834 834 832 831 830 829 831 835 838 841 842 844 845 847 848 849 850 851 852 853 853 854 855 856 857 858 859 861 862 863 864 864 865 866 866 867 868 868 869 870 871 872 873 874 874 874 875 876 877 877 878 878 879 880 880 880 881 881 881 881 881 881 881 881 881 881 880 880 880 879 879 879 879 879
821 825 835 840 840 839 832 828 828 827 827 830 834 832 832 831 830 830 829 829 831 833 833 833 832 831 831 830 829 830 833 837 840 841 842 844 845 847 848 849 850 851 852 852 853 854 855 856 856 858 859 861 862 863 864 864 865 866 866 867 867 868 869 870 870 871 872 873 873 874 875 876 877 877 878 878 879 879 880 880 880 880 880 880 880 880 880 880 880 880 879 879 879 879 879 879 879
824 831 837 838 839 835 827 825 826 826 825 829 832 832 830 830 831 830 830 831 831 834 833 832 831 831 831 830 830 831 833 836 838 839 841 842 843 844 846 847 848 849 850 851 852 852 853 854 856 857 858 859 861 862 863 863 864 864 865 866 866 867 867 868 869 870 871 872 873 874 875 875 876 877 877 878 878 879 879 879 879 879 879 880 880 880 880 879 879 879 879 879 879 878 878 878 878
825 832 836 834 832 829 825 824 825 826 824 826 830 831 830 829 829 830 831 833 833 834 834 833 832 831 831 830 830 831 832 835 836 838 838 840 841 841 843 845 846 847 848 849 850 851 852 853 854 856 857 858 860 861 861 862 862 863 864 864 865 865 866 867 868 869 870 871 872 873 874 875 875 876 877 877 878 878 878 878 878 878 878 878 879 879 879 878 878 878 878 878 878 878 878 878 878
823 829 834 829 825 825 826 826 824 826 825 826 829 829 830 828 828 830 830 832 834 832 830 831 829 827 830 830 830 831 832 834 835 836 837 838 838 839 840 842 843 844 845 847 848 850 850 852 853 854 855 857 858 859 860 861 861 862 863 863 864 864 865 866 867 868 869 870 872 872 873 874 875 875 876 876 877 877 877 878 878 878 878 877 878 878 878 878 878 877 877 878 877 877 877 877 877
822 825 827 823 822 823 823 824 824 825 826 826 827 829 829 827 828 829 829 831 832 828 823 822 820 821 827 830 830 830 831 833 834 835 835 836 836 837 838 839 840 842 844 846 847 848 849 850 852 853 854 855 857 857 858 859 860 861 861 862 863 864 864 865 866 867 868 869 870 871 872 873 874 874 875 875 876 876 876 877 877 877 877 877 877 877 877 877 877 877 877 877 877 877 877 877 877
821 825 824 821 823 821 820 824 825 825 826 825 826 827 826 826 827 827 827 825 820 817 816 815 814 817 823 826 828 829 830 831 831 832 833 833 834 835 836 838 840 841 843 844 845 846 847 849 850 851 852 854 855 856 857 858 859 859 860 861 862 862 863 864 865 866 867 868 869 870 871 871 872 873 874 874 874 875 875 876 876 876 876 876 876 876 876 876 876 876 876 876 876 876 876 876 876
819 824 824 823 824 821 821 824 824 825 824 823 824 824 823 825 825 824 825 817 809 810 811 812 813 816 819 822 825 826 827 828 828 828 829 830 831 832 833 835 837 838 840 841 842 844 845 847 848 849 850 852 853 855 856 857 857 858 859 859 860 861 862 863 864 864 865 866 868 868 869 870 870 871 872 873 873 874 874 874 875 875 875 875 875 875 875 875 876 876 876 876 876 876 876 876 876
818 822 823 823 824 822 823 824 824 825 823 822 824 823 824 824 822 824 821 810 808 812 812 812 813 816 819 821 823 823 824 824 824 825 826 827 828 829 832 833 835 836 838 839 840 842 843 844 846 847 848 850 851 853 854 855 856 856 857 858 859 859 860 861 862 863 864 865 866 866 867 868 869 870 870 871 872 872 873 873 873 874 874 874 874 874 874 874 875 875 875 875 875 875 875 875 875
818 820 822 825 825 823 825 825 825 825 823 824 825 823 823 823 824 823 814 806 809 812 812 813 814 816 819 819 820 821 822 822 823 824 826 827 828 830 832 832 834 834 835 836 838 839 840 842 844 845 846 847 849 851 852 853 854 855 855 856 857 858 858 859 860 861 862 863 864 865 865 866 867 868 869 869 870 870 871 871 872 872 873 873 873 873 873 873 873 874 874 874 874 874 874 874 874
818 819 822 824 824 824 826 826 825 825 824 825 824 823 823 824 825 818 806 805 810 811 812 812 813 815 817 817 818 818 819 820 821 822 824 826 828 829 830 831 832 832 832 834 835 836 838 840 841 842 844 845 847 848 849 850 852 852 853 854 855 856 856 858 859 859 860 861 862 863 863 864 865 866 867 868 868 869 869 870 870 871 871 871 871 872 872 872 872 873 873 873 873 873 873 873 873
820 821 824 824 824 825 826 826 825 826 825 825 824 823 822 824 827 813 801 805 809 810 812 812 812 813 814 815 816 817 817 817 818 820 823 825 826 826 827 828 828 829 831 832 832 833 835 837 839 840 842 843 844 845 847 848 849 850 850 851 852 854 855 856 857 857 858 859 860 860 861 862 863 864 865 866 867 867 868 868 869 869 870 870 870 870 871 871 871 871 871 871 871 872 872 872 872
821 823 823 825 827 825 826 826 825 826 825 824 825 824 822 825 825 809 800 806 808 808 810 812 813 812 813 814 815 816 815 815 817 819 820 819 819 820 822 823 824 826 827 828 830 832 833 834 836 837 839 841 842 843 844 845 846 848 848 849 850 851 853 854 855 855 856 857 858 858 859 860 861 862 863 864 865 865 866 867 867 868 868 869 869 869 869 870 870 870 870 870 870 870 870 871 871
822 823 823 824 825 822 823 825 825 826 824 823 825 823 818 819 814 800 800 808 808 809 810 812 812 811 812 813 813 814 813 814 816 815 814 813 813 816 817 818 821 822 824 826 829 830 830 831 833 835 837 838 839 840 842 843 844 845 847 847 848 849 851 851 852 853 854 855 856 856 857 858 859 860 861 862 863 864 864 865 865 866 866 867 867 868 868 868 869 869 869 869 869 869 869 869 870
823 825 824 825 824 819 823 826 825 826 824 823 826 822 810 806 804 799 804 809 809 810 809 811 812 812 812 812 812 811 811 812 812 810 809 810 812 814 815 817 819 820 822 825 826 826 827 829 831 833 834 835 836 838 839 841 842 843 844 845 845 846 848 849 850 851 852 853 853 854 855 856 857 858 859 860 861 862 862 863 863 864 865 865 866 866 867 867 867 867 867 868 868 868 868 868 868
824 826 827 832 829 820 822 826 824 824 825 823 826 824 810 800 798 800 806 808 807 807 807 810 811 811 812 811 811 810 809 809 807 808 808 810 811 813 814 815 817 818 819 821 821 823 825 827 828 830 831 832 834 835 836 837 839 840 841 842 843 843 845 846 847 848 849 850 851 852 852 853 854 855 856 857 858 859 860 861 861 862 863 864 864 865 865 865 865 866 866 866 866 866 867 867 867
828 827 827 834 833 824 820 823 824 822 823 825 825 821 812 804 797 798 807 808 807 804 803 808 809 809 810 809 810 808 807 807 807 807 808 809 810 810 811 812 814 815 816 817 818 821 823 824 825 826 828 829 831 832 833 835 836 837 838 839 840 841 842 843 844 845 846 847 848 849 850 851 852 853 854 855 856 857 857 858 859 860 861 861 862 862 863 863 863 864 864 864 865 865 865 865 865
832 832 828 830 831 828 823 821 824 823 822 824 823 818 809 802 796 800 809 809 807 804 801 804 805 806 807 807 807 806 805 806 806 805 805 806 806 806 807 809 811 812 813 814 816 818 819 821 822 823 825 826 828 829 831 832 833 834 835 837 838 839 839 840 841 842 843 844 845 846 847 848 849 850 851 852 853 854 855 856 857 858 858 859 860 860 860 861 861 862 862 862 863 863 863 863 863
831 835 831 830 830 830 826 821 823 825 824 823 824 822 811 800 797 801 806 807 807 804 800 800 802 803 803 803 803 802 803 802 801 800 800 800 801 803 805 806 808 810 811 812 813 814 815 817 819 820 822 823 825 826 828 829 831 832 833 834 835 836 837 837 838 839 839 840 842 843 844 845 846 846 847 849 850 851 852 853 854 855 855 856 857 857 858 859 859 860 860 860 860 861 861 861 862
830 832 830 831 831 831 829 824 824 825 825 824 825 822 810 801 798 797 800 805 804 799 797 797 796 798 799 800 800 799 799 798 796 794 794 796 798 800 802 804 806 807 809 810 811 812 813 815 816 817 819 820 822 824 825 827 829 830 831 832 833 833 834 834 835 835 836 837 838 840 841 842 842 843 844 845 846 847 848 849 850 851 852 853 854 854 855 856 856 857 857 858 858 859 859 860 860
830 832 833 833 831 831 830 825 826 828 826 824 824 819 808 799 794 790 792 799 799 795 795 795 793 794 795 797 797 797 797 793 789 790 791 794 796 798 799 801 803 804 806 807 809 810 811 812 813 814 815 817 819 821 823 824 826 827 828 829 829 829 829 831 832 832 833 834 835 836 837 838 839 840 841 841 842 843 844 845 846 848 848 849 850 851 851 852 853 853 854 855 856 857 857 858 859
834 834 835 836 836 833 828 824 828 831 824 818 817 816 810 801 792 785 786 792 794 792 793 791 790 790 790 792 792 792 792 787 785 788 791 792 793 795 797 798 800 802 803 805 806 806 807 809 809 810 812 814 816 817 818 819 820 822 823 823 822 823 825 827 828 829 829 830 831 832 833 835 835 836 837 837 838 839 841 842 843 844 845 846 846 847 848 849 850 851 852 853 854 854 855 855 856
835 836 836 836 837 831 824 826 829 830 826 817 816 816 806 797 789 780 780 785 785 785 787 785 783 784 784 785 786 786 785 784 785 787 787 788 790 791 794 795 797 798 799 801 802 802 804 805 805 807 809 811 811 812 813 814 815 816 817 817 817 820 821 822 823 824 825 826 827 828 829 831 831 832 833 833 834 835 837 838 838 839 840 842 843 844 845 846 847 848 849 850 851 852 852 853 854
835 837 836 832 833 829 825 829 831 831 827 815 814 817 802 788 785 778 777 780 777 777 779 776 775 778 779 779 780 781 781 781 782 782 782 784 785 787 789 791 792 793 795 796 797 799 800 801 802 804 805 806 807 808 809 809 810 812 813 814 816 817 818 818 819 821 822 822 823 824 825 826 826 827 828 829 830 831 832 833 834 835 836 837 838 840 841 842 843 845 846 847 848 849 850 851 851
834 834 833 829 832 831 822 825 831 830 829 821 817 819 801 784 780 770 770 777 775 774 774 772 773 772 772 774 774 775 776 776 777 777 779 780 782 784 785 786 788 790 791 792 793 795 796 796 797 799 800 801 803 804 805 806 808 811 812 813 815 816 816 817 818 819 818 818 819 820 820 821 822 823 824 825 826 827 828 829 830 831 832 833 834 835 836 837 839 840 842 843 844 845 846 847 847
833 832 830 827 829 831 826 830 833 827 829 829 820 811 790 778 777 763 764 775 770 769 771 766 769 771 769 771 771 770 770 770 771 772 774 777 778 779 780 781 783 785 786 786 787 789 790 791 792 794 796 797 798 800 801 804 807 808 810 812 814 814 814 815 815 813 813 813 814 814 814 816 818 819 820 821 822 823 824 824 826 827 828 829 829 830 831 833 834 835 837 838 839 840 841 842 844
831 829 830 830 829 831 832 834 830 819 819 824 821 811 786 774 778 768 766 770 762 765 769 760 762 768 769 769 766 765 766 765 766 767 769 772 772 774 775 777 779 779 780 780 781 784 785 787 789 790 792 793 794 796 799 802 803 804 806 807 808 809 809 808 805 804 806 807 807 808 810 812 814 815 816 817 818 819 820 821 822 823 824 824 825 826 827 829 830 831 833 834 835 836 838 839 839
828 829 835 837 835 835 834 834 829 819 817 822 827 822 801 782 773 768 773 771 760 760 762 756 757 762 763 764 761 760 761 762 763 764 765 767 768 770 772 772 774 774 773 775 778 780 782 783 785 787 788 790 791 793 796 798 799 800 801 801 801 802 801 799 798 800 802 803 804 806 807 808 809 810 811 813 814 815 816 817 819 819 820 820 821 822 823 824 825 827 829 830 831 833 835 835 834
826 835 841 838 837 836 835 837 834 830 827 826 831 828 817 799 775 770 778 770 756 751 748 748 751 754 756 758 757 756 757 758 759 761 762 764 764 765 766 767 768 768 769 773 775 776 778 780 782 784 785 786 788 790 792 794 795 796 796 797 797 797 795 794 796 799 800 802 802 803 804 804 805 806 807 808 810 811 813 814 815 816 816 817 818 818 818 820 822 823 825 826 828 829 830 830 830
829 842 845 840 840 837 839 840 836 842 834 818 825 828 817 799 776 771 776 765 755 747 740 741 743 746 749 751 753 754 753 755 756 756 757 758 760 760 761 762 763 764 766 769 771 772 774 776 778 780 781 782 784 786 788 789 790 791 792 793 793 792 792 793 796 798 798 799 799 799 800 800 801 802 803 804 806 807 809 809 811 811 812 813 813 814 815 817 818 819 820 821 823 824 825 827 827
836 845 844 844 847 842 843 842 836 843 830 805 814 825 811 790 768 765 770 762 755 746 739 740 741 745 747 747 749 749 751 753 752 753 753 753 755 755 757 759 760 762 764 766 768 769 771 773 775 777 777 778 780 782 783 784 786 787 788 788 788 788 789 791 794 794 794 795 794 795 795 796 797 798 799 800 801 803 804 805 806 806 807 809 809 810 811 812 813 814 816 817 818 819 821 822 822
839 841 837 836 843 844 843 845 840 834 815 800 814 823 813 795 766 758 762 754 747 742 739 739 738 741 743 743 745 745 746 749 749 751 751 751 752 753 755 757 758 759 761 764 765 767 768 770 772 772 773 775 776 778 779 780 781 783 783 783 784 784 785 788 789 789 790 790 790 790 791 792 793 793 794 796 796 797 799 799 800 801 803 804 804 805 806 807 809 810 812 813 814 815 816 817 818
837 834 830 824 828 835 835 838 838 821 799 802 822 826 820 803 767 750 754 751 748 746 740 736 734 732 733 736 740 741 743 744 746 748 749 750 751 752 754 754 755 758 759 761 761 763 765 766 768 769 769 771 772 774 775 776 777 778 778 779 779 779 781 783 784 783 785 785 785 786 787 788 789 789 790 790 790 792 793 794 796 797 798 798 799 800 801 802 804 806 808 809 809 810 812 813 814
836 831 830 823 820 821 816 817 823 814 800 810 825 821 813 798 767 751 752 748 746 748 743 737 734 731 728 731 736 738 740 741 743 745 746 748 749 749 751 751 753 755 755 757 758 759 761 762 764 765 765 766 768 770 771 772 773 773 773 774 774 775 777 778 778 778 780 780 781 782 783 783 784 784 784 784 784 786 787 788 790 791 791 792 793 795 796 798 800 802 803 803 804 805 806 808 808
836 826 823 819 819 818 809 811 819 811 803 814 824 815 800 782 757 745 745 739 737 742 742 739 737 734 728 728 733 737 739 739 740 741 742 744 745 746 748 748 750 751 752 753 755 756 758 759 761 761 761 762 764 766 767 768 769 768 769 770 771 772 773 773 774 774 774 775 776 777 777 778 778 778 778 777 778 781 782 783 784 785 786 788 789 790 792 794 795 796 797 798 799 800 802 803 803
832 827 826 820 817 815 807 805 806 800 803 816 820 807 786 764 744 737 738 737 737 738 740 742 741 739 736 734 735 736 736 737 738 739 740 741 742 743 745 746 747 748 750 751 752 754 755 756 757 758 758 759 761 762 763 764 764 764 766 766 767 768 768 769 769 769 770 770 771 772 772 773 773 772 773 773 775 777 777 778 779 780 781 783 785 786 788 789 791 792 792 793 794 796 798 798 799
829 833 828 820 815 811 809 813 814 815 820 818 808 792 774 755 738 736 739 736 735 736 738 741 738 737 741 739 735 733 733 735 737 738 739 739 740 742 743 744 745 746 748 749 751 752 753 753 754 755 755 756 757 759 759 760 760 761 762 763 764 764 765 765 765 765 765 765 766 767 768 768 768 768 769 770 771 772 772 773 774 774 776 778 779 781 783 784 786 787 787 788 789 791 793 793 794
825 828 818 820 826 815 809 819 830 835 824 804 792 778 766 758 739 729 733 730 727 729 730 733 734 736 738 735 732 733 732 734 736 737 738 739 740 741 741 743 743 745 746 747 748 749 750 751 751 752 753 753 755 755 756 756 757 758 759 759 760 761 761 761 760 760 761 761 763 763 763 764 764 764 764 765 766 767 767 768 768 769 771 772 774 776 777 779 781 781 782 783 783 786 788 788 789
820 820 816 822 828 821 817 819 821 825 814 796 790 778 765 761 744 727 728 725 722 723 722 725 730 733 733 730 731 734 734 736 738 739 740 740 741 740 740 741 742 743 745 746 747 748 749 749 750 750 751 751 752 752 753 754 754 755 755 756 756 756 757 756 756 756 757 758 759 759 759 758 759 759 760 761 761 761 762 762 763 764 765 766 768 770 771 773 776 776 776 777 778 781 783 782 784
823 821 824 822 816 815 822 822 811 810 806 791 787 785 775 761 742 729 727 725 722 723 725 726 727 729 731 729 731 735 738 739 739 739 741 741 741 740 740 740 741 743 744 745 746 747 747 748 748 749 749 749 750 750 750 751 751 752 752 752 752 752 752 752 752 752 753 754 753 753 754 753 753 754 755 756 756 756 756 757 757 758 759 761 762 764 766 768 769 770 771 772 774 776 777 777 778
832 828 828 825 819 813 816 821 814 806 801 789 779 776 767 754 741 731 727 727 728 729 730 731 730 733 736 736 737 741 742 742 740 740 742 742 742 741 740 741 741 743 744 744 745 746 746 746 747 747 747 747 748 748 748 748 748 748 748 748 749 748 748 748 748 748 749 748 748 748 749 748 748 749 750 751 751 751 751 751 751 752 753 755 756 757 759 761 763 763 764 766 768 771 771 771 773
825 827 826 824 822 820 817 820 818 806 797 794 789 770 748 743 741 733 730 733 737 741 741 739 740 743 747 746 746 745 744 743 742 742 743 744 743 742 741 742 743 744 744 744 745 746 746 746 746 747 747 747 747 747 747 746 746 746 746 745 745 745 744 744 744 744 744 743 743 744 743 743 744 744 745 745 745 745 746 746 746 746 747 748 750 751 753 755 757 757 758 760 762 765 765 765 768
807 810 811 811 813 815 812 810 812 811 801 792 790 771 744 739 742 740 743 748 751 755 753 749 751 751 749 748 747 745 744 743 744 745 746 746 746 745 744 745 745 746 745 745 746 746 747 747 747 747 748 748 747 747 747 747 747 746 745 744 743 742 742 741 740 740 739 739 739 739 739 739 739 738 739 740 739 740 740 741 741 740 741 742 743 745 747 749 750 750 753 755 756 759 759 760 763